| time (UTC) | temp F | wind direction | speed MPH | gust MPH | rain 1hr in | rain 24hr in | rain mn in | humidity % | barometer mb |
| 20260507154550 | 46 | 176 | 0.0 | 3.0 | 0.00 | 0.69 | 0.01 | 83 | 1007.0 |
| 20260507153055 | 46 | 250 | 0.0 | 5.0 | 0.00 | 0.69 | 0.01 | 85 | 1007.1 |
| 20260507151546 | 45 | 284 | 0.0 | 8.0 | 0.00 | 0.69 | 0.01 | 88 | 1007.0 |
| 20260507150042 | 44 | 257 | 0.0 | 3.0 | 0.00 | 0.69 | 0.01 | 96 | 1007.1 |
| 20260507144536 | 43 | 269 | 0.0 | 3.0 | 0.00 | 0.79 | 0.01 | 97 | 1007.0 |
| 20260507143032 | 42 | 259 | 0.0 | 4.0 | 0.00 | 0.79 | 0.01 | 97 | 1007.3 |
| 20260507141532 | 42 | 279 | 0.0 | 0.0 | 0.00 | 0.79 | 0.01 | 97 | 1007.4 |
| 20260507140030 | 41 | 279 | 0.0 | 0.0 | 0.00 | 0.79 | 0.01 | 97 | 1007.3 |
| 20260507134531 | 41 | 136 | 0.0 | 0.0 | 0.00 | 0.88 | 0.01 | 97 | 1007.4 |
| 20260507133031 | 42 | 5 | 0.0 | 0.0 | 0.00 | 0.88 | 0.01 | 97 | 1007.5 |
| 20260507131534 | 41 | 5 | 0.0 | 0.0 | 0.00 | 0.88 | 0.01 | 97 | 1007.5 |
| 20260507130029 | 41 | 5 | 0.0 | 0.0 | 0.00 | 0.88 | 0.01 | 97 | 1007.5 |
| 20260507124529 | 41 | 5 | 0.0 | 0.0 | 0.00 | 0.90 | 0.01 | 97 | 1007.4 |
| 20260507123033 | 41 | 5 | 0.0 | 0.0 | 0.00 | 0.90 | 0.01 | 97 | 1007.6 |
| 20260507121528 | 41 | 5 | 0.0 | 0.0 | 0.00 | 0.90 | 0.01 | 97 | 1007.4 |
| 20260507120039 | 40 | 5 | 0.0 | 0.0 | 0.00 | 0.90 | 0.01 | 98 | 1007.6 |
| 20260507114525 | 40 | 5 | 0.0 | 0.0 | 0.00 | 0.90 | 0.01 | 97 | 1007.4 |
| 20260507113038 | 40 | 5 | 0.0 | 0.0 | 0.00 | 0.90 | 0.01 | 97 | 1007.5 |
| 20260507111524 | 39 | 5 | 0.0 | 0.0 | 0.00 | 0.90 | 0.01 | 97 | 1007.3 |
| 20260507110026 | 39 | 5 | 0.0 | 0.0 | 0.00 | 0.90 | 0.01 | 97 | 1007.3 |
| 20260507104522 | 38 | 5 | 0.0 | 0.0 | 0.00 | 0.90 | 0.01 | 97 | 1007.5 |
| 20260507103021 | 38 | 5 | 0.0 | 0.0 | 0.00 | 0.90 | 0.01 | 97 | 1007.4 |
| 20260507101521 | 38 | 5 | 0.0 | 0.0 | 0.00 | 0.90 | 0.01 | 97 | 1007.1 |
| 20260507100025 | 38 | 5 | 0.0 | 0.0 | 0.00 | 0.90 | 0.01 | 97 | 1007.2 |
| 20260507094516 | 38 | 5 | 0.0 | 0.0 | 0.00 | 0.91 | 0.01 | 97 | 1007.1 |
| 20260507093013 | 38 | 5 | 0.0 | 0.0 | 0.00 | 0.91 | 0.01 | 97 | 1006.8 |
| 20260507091513 | 39 | 5 | 0.0 | 0.0 | 0.00 | 0.91 | 0.01 | 97 | 1007.1 |
| 20260507090010 | 39 | 5 | 0.0 | 0.0 | 0.00 | 0.91 | 0.01 | 97 | 1007.2 |
| 20260507084511 | 39 | 5 | 0.0 | 0.0 | 0.00 | 0.92 | 0.01 | 97 | 1007.3 |
| 20260507083008 | 39 | 5 | 0.0 | 0.0 | 0.00 | 0.92 | 0.01 | 97 | 1007.1 |
| 20260507081507 | 39 | 5 | 0.0 | 0.0 | 0.00 | 0.92 | 0.01 | 97 | 1006.9 |
| 20260507080006 | 39 | 5 | 0.0 | 0.0 | 0.00 | 0.92 | 0.01 | 97 | 1006.9 |
| 20260507074506 | 39 | 5 | 0.0 | 0.0 | 0.00 | 0.98 | 0.01 | 97 | 1006.8 |
| 20260507073005 | 39 | 5 | 0.0 | 0.0 | 0.00 | 0.98 | 0.01 | 97 | 1006.7 |
| 20260507071504 | 39 | 5 | 0.0 | 0.0 | 0.00 | 0.98 | 0.01 | 97 | 1006.8 |
| 20260507070008 | 39 | 5 | 0.0 | 0.0 | 0.00 | 0.98 | 0.01 | 97 | 1006.7 |
| 20260507064502 | 40 | 5 | 0.0 | 0.0 | 0.00 | 1.02 | 0.01 | 97 | 1006.7 |
| 20260507063002 | 40 | 5 | 0.0 | 0.0 | 0.00 | 1.02 | 0.01 | 97 | 1006.8 |
| 20260507061502 | 40 | 5 | 0.0 | 0.0 | 0.01 | 1.02 | 0.01 | 97 | 1006.7 |
| 20260507060100 | 40 | 5 | 0.0 | 0.0 | 0.01 | 1.02 | 0.01 | 96 | 1006.1 |
| 20260507054557 | 40 | 5 | 0.0 | 0.0 | 0.01 | 1.07 | 0.01 | 96 | 1006.8 |
| 20260507053057 | 41 | 5 | 0.0 | 0.0 | 0.01 | 1.07 | 0.01 | 96 | 1007.0 |
| 20260507051555 | 41 | 5 | 0.0 | 0.0 | 0.00 | 1.06 | 0.00 | 96 | 1006.8 |
| 20260507050057 | 42 | 5 | 0.0 | 0.0 | 0.00 | 1.06 | 0.00 | 97 | 1007.1 |
| 20260507044552 | 42 | 5 | 0.0 | 0.0 | 0.00 | 1.25 | 0.00 | 97 | 1007.0 |
| 20260507043050 | 42 | 5 | 0.0 | 0.0 | 0.00 | 1.25 | 0.00 | 97 | 1006.9 |
| 20260507041548 | 42 | 5 | 0.0 | 0.0 | 0.00 | 1.25 | 0.00 | 97 | 1007.3 |
| 20260507040044 | 42 | 5 | 0.0 | 0.0 | 0.00 | 1.25 | 0.00 | 97 | 1007.3 |
| 20260507034600 | 42 | 5 | 0.0 | 0.0 | 0.01 | 1.25 | 1.25 | 97 | 1006.9 |
| 20260507033100 | 42 | 5 | 0.0 | 0.0 | 0.02 | 1.25 | 1.25 | 96 | 1007.1 |
| 20260507031542 | 42 | 5 | 0.0 | 0.0 | 0.03 | 1.25 | 1.25 | 96 | 1007.2 |
| 20260507030041 | 42 | 340 | 0.0 | 0.0 | 0.04 | 1.25 | 1.25 | 97 | 1007.0 |
| 20260507024551 | 42 | 340 | 0.0 | 0.0 | 0.04 | 1.24 | 1.24 | 96 | 1007.7 |
| 20260507023039 | 42 | 340 | 0.0 | 0.0 | 0.03 | 1.23 | 1.23 | 96 | 1007.8 |
| 20260507021539 | 42 | 340 | 0.0 | 0.0 | 0.05 | 1.22 | 1.22 | 96 | 1007.6 |
| 20260507020037 | 43 | 327 | 0.0 | 0.0 | 0.05 | 1.21 | 1.21 | 96 | 1007.5 |
| 20260507014535 | 43 | 13 | 0.0 | 0.0 | 0.05 | 1.21 | 1.20 | 96 | 1007.1 |
| 20260507013038 | 43 | 360 | 0.0 | 0.0 | 0.06 | 1.21 | 1.20 | 96 | 1007.1 |
| 20260507011535 | 43 | 360 | 0.0 | 0.0 | 0.03 | 1.18 | 1.17 | 96 | 1007.0 |
| 20260507010038 | 43 | 360 | 0.0 | 0.0 | 0.01 | 1.15 | 1.14 | 96 | 1006.8 |
| 20260507004532 | 43 | 360 | 0.0 | 0.0 | 0.02 | 1.15 | 1.14 | 96 | 1006.4 |
| 20260507003032 | 43 | 355 | 0.0 | 0.0 | 0.02 | 1.14 | 1.13 | 96 | 1006.5 |
| 20260507001544 | 43 | 355 | 0.0 | 0.0 | 0.02 | 1.14 | 1.13 | 96 | 1006.1 |
| 20260507000031 | 43 | 5 | 0.0 | 0.0 | 0.01 | 1.13 | 1.12 | 96 | 1005.7 |
| 20260506234545 | 44 | 339 | 0.0 | 0.0 | 0.01 | 1.13 | 1.12 | 96 | 1006.1 |
| 20260506233029 | 44 | 339 | 0.0 | 0.0 | 0.00 | 1.12 | 1.12 | 95 | 1005.7 |
| 20260506231534 | 44 | 300 | 0.0 | 0.0 | 0.00 | 1.12 | 1.12 | 95 | 1005.7 |
| 20260506230027 | 44 | 248 | 0.0 | 5.0 | 0.00 | 1.12 | 1.12 | 95 | 1005.4 |
| 20260506224529 | 44 | 15 | 0.0 | 0.0 | 0.03 | 1.12 | 1.12 | 95 | 1005.4 |
| 20260506223024 | 44 | 332 | 0.0 | 3.0 | 0.06 | 1.12 | 1.12 | 95 | 1005.1 |
| 20260506221524 | 45 | 334 | 0.0 | 0.0 | 0.09 | 1.12 | 1.12 | 95 | 1004.9 |
| 20260506220032 | 45 | 306 | 0.0 | 0.0 | 0.11 | 1.12 | 1.12 | 96 | 1005.0 |
| 20260506214522 | 45 | 355 | 0.0 | 0.0 | 0.09 | 1.11 | 1.09 | 96 | 1005.1 |
| 20260506213021 | 45 | 360 | 0.0 | 0.0 | 0.07 | 1.08 | 1.06 | 94 | 1005.0 |
| 20260506211521 | 46 | 5 | 0.0 | 2.0 | 0.05 | 1.05 | 1.03 | 94 | 1005.2 |
| 20260506210017 | 47 | 332 | 0.0 | 0.0 | 0.03 | 1.03 | 1.01 | 95 | 1004.8 |
| 20260506204515 | 47 | 338 | 0.0 | 0.0 | 0.02 | 1.17 | 1.00 | 96 | 1004.7 |
| 20260506203015 | 47 | 355 | 0.0 | 0.0 | 0.02 | 1.15 | 0.99 | 96 | 1004.4 |
| 20260506201516 | 48 | 40 | 0.0 | 0.0 | 0.01 | 1.14 | 0.98 | 95 | 1004.3 |
| 20260506200013 | 48 | 11 | 0.0 | 0.0 | 0.02 | 1.14 | 0.98 | 96 | 1004.3 |
| 20260506194513 | 48 | 51 | 0.0 | 0.0 | 0.02 | 1.14 | 0.98 | 96 | 1004.4 |
| 20260506193012 | 48 | 22 | 0.0 | 0.0 | 0.02 | 1.13 | 0.97 | 97 | 1004.6 |
| 20260506191512 | 47 | 5 | 0.0 | 0.0 | 0.05 | 1.13 | 0.97 | 96 | 1004.7 |
| 20260506190010 | 47 | 355 | 0.0 | 0.0 | 0.09 | 1.12 | 0.96 | 96 | 1004.7 |
| 20260506184510 | 47 | 9 | 0.0 | 0.0 | 0.11 | 1.12 | 0.96 | 96 | 1004.7 |
| 20260506183010 | 47 | 5 | 0.0 | 0.0 | 0.12 | 1.12 | 0.95 | 96 | 1004.9 |
| 20260506181510 | 47 | 355 | 0.0 | 0.0 | 0.15 | 1.09 | 0.92 | 96 | 1005.3 |
| 20260506180007 | 47 | 187 | 0.0 | 2.0 | 0.12 | 1.04 | 0.87 | 95 | 1005.5 |
| 20260506174506 | 48 | 70 | 0.0 | 2.0 | 0.13 | 1.02 | 0.85 | 96 | 1005.3 |
| 20260506173002 | 50 | 181 | 0.0 | 10.0 | 0.12 | 0.99 | 0.82 | 94 | 1005.1 |
| 20260506171502 | 53 | 176 | 0.0 | 0.0 | 0.09 | 0.94 | 0.77 | 97 | 1004.6 |
| 20260506170110 | 52 | 19 | 0.0 | 0.0 | 0.09 | 0.92 | 0.75 | 97 | 1004.5 |
| 20260506164559 | 52 | 9 | 0.0 | 0.0 | 0.08 | 0.89 | 0.72 | 97 | 1004.8 |
| 20260506163058 | 52 | 9 | 0.0 | 0.0 | 0.09 | 0.87 | 0.70 | 97 | 1004.9 |
| 20260506161558 | 52 | 9 | 0.0 | 0.0 | 0.09 | 0.85 | 0.68 | 97 | 1005.4 |
| 20260506160108 | 51 | 9 | 0.0 | 0.0 | 0.09 | 0.83 | 0.66 | 96 | 1005.6 |